[[{"header":{"parameterUnit":"m.s-1","parameterCategory":1,"la1":30.2991,"la2":30.254,"lo1":-89.0895,"lo2":-89.0444,"dy":0.0017,"dx":0.0017,"nx":28,"ny":28,"refTime":"2024-04-14T09:00:00:Z","depth":0,"parameterNumber":2,"parameterNumberName":"U-component_of_WINDS"},"data":[0,0,0,0,0,0,0,0,0,0,0,0,0,0,0,0,0,0,0,0,0,0,0,0,0,0,0,0,0,0,0,0,0,0,0,0,0,0,0,0,0,0,0,0,0,0,0,0,0,0,0,0,0,0,0,0,0,0,-2.6028,-2.6027,0,-2.5967,-2.5967,-2.5966,-2.5914,-2.5913,-2.5913,-2.5912,-2.585,-2.5849,-2.5848,0,0,0,0,0,0,0,0,0,0,0,0,0,-2.6099,-2.6098,-2.6028,-2.6027,-2.6026,-2.5968,-2.5967,-2.5966,-2.5914,-2.5913,-2.5912,-2.5912,-2.585,-2.5849,-2.5848,0,0,0,0,0,0,0,0,0,0,0,0,0,-2.6056,-2.6097,-2.6028,-2.5993,-2.5989,-2.5968,-2.5967,-2.5966,-2.5914,-2.5913,-2.5912,-2.5911,-2.5851,-2.5849,-2.5848,-2.5855,0,0,-2.5842,-2.5842,0,0,0,0,0,0,0,0,-2.6059,-2.6054,-2.5999,-2.5995,-2.5991,-2.5947,-2.5969,-2.5929,-2.5914,-2.5943,-2.5912,-2.5911,-2.5883,-2.5879,-2.5869,-2.5852,-2.585,-2.5842,-2.5841,-2.5841,-2.584,0,0,0,0,0,0,0,-2.6062,-2.6056,-2.6004,-2.5998,-2.5994,-2.5981,-2.5974,-2.5961,-2.5919,-2.594,-2.5936,-2.593,-2.5881,-2.5871,-2.5867,-2.5849,-2.5842,-2.5841,-2.584,-2.5839,-2.5836,-2.5837,0,0,0,0,0,0,-2.607,-2.6059,-2.6006,-2.6002,-2.6023,-2.598,-2.5973,-2.5962,-2.5919,-2.5911,-2.5931,-2.5928,-2.5874,-2.5869,-2.5865,-2.5871,-2.5841,-2.5839,-2.5838,-2.5836,-2.5837,-2.5838,0,0,0,0,0,0,-2.6072,-2.6066,-2.6008,-2.6029,-2.6021,-2.598,-2.5969,-2.5962,-2.5952,-2.5911,-2.5904,-2.5928,-2.5873,-2.5867,-2.5858,-2.5869,-2.5838,-2.5837,-2.5834,-2.5836,-2.5837,-2.5884,0,0,0,0,0,0,-2.6074,-2.6067,-2.6068,-2.603,-2.602,-2.6002,-2.597,-2.5961,-2.5949,-2.5944,-2.5907,-2.59,-2.5872,-2.5861,-2.5857,-2.5866,-2.5836,-2.5833,-2.5835,-2.5837,-2.5882,-2.5887,-2.5892,0,0,0,0,0,-2.6077,-2.6084,-2.6069,-2.6063,-2.6022,-2.6003,-2.5997,-2.5965,-2.595,-2.5952,-2.5927,-2.5901,-2.5869,-2.5861,-2.5855,-2.5864,-2.5832,-2.5835,-2.5837,-2.5879,-2.5886,-2.5892,0,0,0,0,0,0,-2.6124,-2.6078,-2.6061,-2.6056,-2.6034,-2.5994,-2.5995,-2.5973,-2.5954,-2.5951,-2.5912,-2.5904,-2.5899,-2.5881,-2.5873,-2.587,-2.5847,-2.5848,-2.5882,-2.5888,-2.5893,-2.5897,-2.5834,0,0,0,0,0,-2.6134,-2.6123,-2.6083,-2.6082,-2.6072,-2.6036,-2.6026,-2.6004,-2.5979,-2.597,-2.5943,-2.592,-2.5905,-2.5896,-2.5879,-2.588,-2.5871,-2.5883,-2.5888,-2.5893,-2.5893,-2.5893,-2.5898,-2.5844,-2.5844,-2.5844,0,0,-2.6154,-2.6128,-2.6123,-2.6091,-2.6071,-2.6061,-2.6028,-2.6018,-2.6009,-2.5968,-2.5957,-2.5938,-2.591,-2.5906,-2.5903,-2.5891,-2.5907,-2.5895,-2.5899,-2.5897,-2.5896,-2.5901,-2.5906,-2.5846,-2.5846,-2.5845,0,0,-2.6185,-2.6164,-2.6161,-2.6143,-2.6114,-2.609,-2.609,-2.6054,-2.6039,-2.6029,-2.5998,-2.5988,-2.5962,-2.5944,-2.5931,-2.5959,-2.5935,-2.5955,-2.5981,-2.5981,-2.5985,-2.5989,-2.5998,-2.6002,-2.5956,-2.5956,-2.5956,0,-2.6214,-2.6196,-2.6163,-2.6155,-2.6142,-2.6105,-2.6103,-2.6087,-2.6054,-2.6046,-2.6033,-2.6001,-2.598,-2.5971,-2.5978,-2.5969,-2.5968,-2.5958,-2.5987,-2.599,-2.5993,-2.6002,-2.6006,-2.5959,-2.5958,-2.5958,-2.5958,0,-2.6233,-2.6221,-2.6223,-2.6192,-2.618,-2.6175,-2.6142,-2.6134,-2.6113,-2.6091,-2.6082,-2.6056,-2.6034,-2.6031,-2.601,-2.602,-2.6013,-2.5994,-2.5971,-2.6001,-2.6009,-2.6012,-2.5962,-2.5961,-2.5961,-2.596,0,0,-2.6289,-2.6243,-2.6244,-2.623,-2.6197,-2.6187,-2.6181,-2.616,-2.6154,-2.6134,-2.6128,-2.6108,-2.6091,-2.6077,-2.6055,-2.6055,-2.6079,-2.6036,-2.6035,-2.6045,-2.6089,-2.6103,-2.6107,-2.6064,-2.6065,-2.6065,-2.6091,0,-2.6314,-2.63,-2.6272,-2.6267,-2.6257,-2.6223,-2.6218,-2.6197,-2.6178,-2.6166,-2.6144,-2.6131,-2.6109,-2.6101,-2.61,-2.6076,-2.6087,-2.6074,-2.6058,-2.6058,-2.6065,-2.6111,-2.6125,-2.615,-2.6094,-2.6094,-2.6095,0,-2.6341,-2.6323,-2.6318,-2.6286,-2.628,-2.6276,-2.6256,-2.6245,-2.6222,-2.6207,-2.6193,-2.6169,-2.6162,-2.6142,-2.6131,-2.6123,-2.6116,-2.6103,-2.6104,-2.61,-2.6077,-2.6108,-2.6158,-2.6161,-2.6099,-2.6099,-2.6099,0,-2.6382,-2.6357,-2.6351,-2.634,-2.6303,-2.6301,-2.6286,-2.6262,-2.6252,-2.6234,-2.6228,-2.621,-2.62,-2.6187,-2.6159,-2.6147,-2.6152,-2.6129,-2.614,-2.6141,-2.6141,-2.6141,-2.619,-2.6138,-2.6138,-2.6138,-2.6138,0,-2.6412,-2.641,-2.6369,-2.6365,-2.6362,-2.633,-2.6329,-2.631,-2.629,-2.6282,-2.6253,-2.6246,-2.621,-2.62,-2.6179,-2.6174,-2.617,-2.6158,-2.6152,-2.616,-2.6162,-2.6153,-2.615,-2.6139,-2.6139,-2.6139,-2.6139,0,-2.6457,-2.6429,-2.642,-2.6387,-2.6379,-2.6378,-2.635,-2.6345,-2.6325,-2.6316,-2.6312,-2.628,-2.6267,-2.6238,-2.6217,-2.6203,-2.6203,-2.6193,-2.6211,-2.6207,-2.6219,-2.6218,-2.6263,-2.6268,-2.6214,-2.6215,-2.6215,0,-2.6478,-2.6475,-2.6442,-2.6435,-2.6421,-2.641,-2.64,-2.6369,-2.636,-2.6335,-2.6334,-2.6318,-2.6304,-2.6285,-2.626,-2.6244,-2.6233,-2.625,-2.623,-2.6239,-2.6233,-2.6233,-2.6233,-2.6254,-2.6255,-2.6255,-2.6256,0,-2.6517,-2.6504,-2.649,-2.6472,-2.6461,-2.6446,-2.6429,-2.6425,-2.6391,-2.6382,-2.6368,-2.6358,-2.6337,-2.6323,-2.6304,-2.6288,-2.6267,-2.6263,-2.6264,-2.6272,-2.6282,-2.6276,-2.6222,-2.6261,-2.6261,-2.626,-2.626,-2.626,-2.6549,-2.6546,-2.6523,-2.6509,-2.6493,-2.6479,-2.6473,-2.6453,-2.6441,-2.6421,-2.6405,-2.6393,-2.6372,-2.6344,-2.6331,-2.6321,-2.631,-2.6313,-2.6313,-2.6314,-2.6317,-2.6285,-2.6318,-2.6318,-2.6318,-2.6317,-2.6317,0,-2.6586,-2.657,-2.6558,-2.6536,-2.6526,-2.6507,-2.6488,-2.6481,-2.647,-2.6453,-2.644,-2.6425,-2.6412,-2.6387,-2.6371,-2.6369,-2.6358,-2.6366,-2.6365,-2.6362,-2.6328,-2.6328,-2.6374,-2.6374,-2.6374,-2.6374,-2.6374,-2.6374,-2.6604,-2.6598,-2.6583,-2.6569,-2.6553,-2.6541,-2.6532,-2.6519,-2.6504,-2.6489,-2.6478,-2.6462,-2.6442,-2.6425,-2.6412,-2.6405,-2.6401,-2.6411,-2.6401,-2.6369,-2.6364,-2.6359,-2.6359,-2.641,-2.641,-2.6435,-2.6435,-2.6435]},{"header":{"parameterUnit":"m.s-1","parameterCategory":1,"la1":30.2991,"la2":30.254,"lo1":-89.0895,"lo2":-89.0444,"dy":0.0017,"dx":0.0017,"nx":28,"ny":28,"refTime":"2024-04-14T09:00:00:Z","depth":0,"parameterNumber":3,"parameterNumberName":"V-component_of_WINDS"},"data":[0,0,0,0,0,0,0,0,0,0,0,0,0,0,0,0,0,0,0,0,0,0,0,0,0,0,0,0,0,0,0,0,0,0,0,0,0,0,0,0,0,0,0,0,0,0,0,0,0,0,0,0,0,0,0,0,0,0,4.5952,4.5952,0,4.5955,4.5955,4.5955,4.5884,4.5882,4.588,4.5879,4.5882,4.5883,4.5885,0,0,0,0,0,0,0,0,0,0,0,0,0,4.5882,4.5884,4.5952,4.5952,4.5952,4.5955,4.5955,4.5955,4.5885,4.5882,4.588,4.5878,4.5881,4.5883,4.5885,0,0,0,0,0,0,0,0,0,0,0,0,0,4.5902,4.5884,4.5952,4.5917,4.5914,4.5955,4.5955,4.5955,4.5885,4.5882,4.5879,4.5877,4.588,4.5883,4.5886,4.596,0,0,4.5894,4.5896,0,0,0,0,0,0,0,0,4.5901,4.5904,4.5922,4.5919,4.5916,4.5916,4.5932,4.5957,4.5886,4.5896,4.5879,4.5875,4.5895,4.5897,4.5904,4.5961,4.5961,4.5895,4.5896,4.5897,4.5898,0,0,0,0,0,0,0,4.5899,4.5904,4.5953,4.5922,4.5919,4.5901,4.59,4.5936,4.5912,4.5895,4.589,4.5891,4.5893,4.5901,4.5903,4.5961,4.5894,4.5897,4.5899,4.59,4.6078,4.6081,0,0,0,0,0,0,4.5903,4.5903,4.5953,4.5953,4.5901,4.5904,4.5904,4.5919,4.5911,4.5907,4.5894,4.5888,4.5898,4.59,4.5903,4.5989,4.5897,4.59,4.5902,4.6075,4.6079,4.6082,0,0,0,0,0,0,4.5902,4.5908,4.5953,4.5927,4.5931,4.5908,4.5926,4.5921,4.5929,4.591,4.5905,4.5906,4.5896,4.5899,4.5947,4.5988,4.5901,4.5904,4.6071,4.6076,4.608,4.6163,0,0,0,0,0,0,4.59,4.5908,4.5937,4.5928,4.5933,4.5997,4.5929,4.5923,4.5934,4.5926,4.5921,4.5917,4.5894,4.5943,4.5949,4.5991,4.5906,4.6067,4.6073,4.6079,4.6156,4.617,4.6181,0,0,0,0,0,4.5898,4.596,4.5938,4.5945,4.5968,4.5999,4.6002,4.5974,4.5937,4.5965,4.5954,4.5917,4.5983,4.5948,4.5955,4.5998,4.6065,4.6072,4.6078,4.6151,4.6167,4.6181,0,0,0,0,0,0,4.5974,4.5958,4.5934,4.5995,4.5999,4.5987,4.6022,4.5992,4.6006,4.5999,4.5963,4.5962,4.6015,4.6011,4.5973,4.6069,4.6017,4.6026,4.607,4.6085,4.6098,4.6097,4.5908,0,0,0,0,0,4.5998,4.6025,4.6009,4.6065,4.6068,4.6045,4.6058,4.6035,4.6038,4.6039,4.6031,4.6034,4.6055,4.607,4.6089,4.6156,4.6153,4.6188,4.6201,4.6211,4.6219,4.6253,4.6269,4.6105,4.6104,4.6104,0,0,4.6048,4.6042,4.6062,4.608,4.608,4.6109,4.6047,4.608,4.61,4.6044,4.6088,4.6082,4.6084,4.6141,4.6166,4.6139,4.6264,4.622,4.6228,4.623,4.6262,4.6277,4.6291,4.6109,4.6108,4.6108,0,0,4.6153,4.6152,4.6197,4.6199,4.62,4.6184,4.6195,4.6188,4.6182,4.6225,4.6184,4.6207,4.6245,4.6247,4.6254,4.6359,4.6326,4.6366,4.6431,4.6465,4.6478,4.6489,4.6526,4.654,4.6374,4.6374,4.6374,0,4.6214,4.6256,4.6224,4.626,4.6269,4.6219,4.6265,4.6268,4.6276,4.6283,4.6253,4.6299,4.6296,4.6353,4.6379,4.6386,4.6397,4.6367,4.6479,4.649,4.65,4.6535,4.6549,4.6379,4.6379,4.6378,4.6378,0,4.6331,4.636,4.6397,4.6405,4.6418,4.6459,4.6433,4.645,4.6427,4.6414,4.6459,4.6454,4.6471,4.6482,4.646,4.6536,4.6519,4.6485,4.6432,4.6521,4.6553,4.6566,4.6386,4.6384,4.6383,4.6382,0,0,4.6484,4.6474,4.6488,4.6491,4.6489,4.6511,4.6548,4.6565,4.658,4.6586,4.6617,4.6649,4.6617,4.6624,4.6602,4.6632,4.6715,4.6593,4.6593,4.6615,4.6797,4.6823,4.6839,4.6693,4.6695,4.6697,4.6797,0,4.6586,4.665,4.6623,4.669,4.6716,4.6669,4.6702,4.6704,4.6692,4.6713,4.67,4.6724,4.668,4.6684,4.6711,4.6699,4.6751,4.6691,4.6721,4.6722,4.6721,4.6856,4.6884,4.6978,4.681,4.6812,4.6813,0,4.6713,4.6725,4.6794,4.6786,4.6796,4.6826,4.6838,4.6859,4.686,4.6849,4.6857,4.6828,4.6864,4.6811,4.686,4.6821,4.6831,4.6827,4.683,4.6831,4.6773,4.6861,4.7008,4.7022,4.6833,4.6831,4.683,0,4.6818,4.6851,4.6896,4.69,4.6892,4.6914,4.6912,4.691,4.6921,4.6932,4.6938,4.6953,4.6961,4.6973,4.6949,4.6913,4.7001,4.6946,4.6993,4.6994,4.7013,4.7013,4.7164,4.7021,4.7021,4.7021,4.702,0,4.6934,4.6978,4.6943,4.6971,4.7019,4.6987,4.7035,4.7027,4.7026,4.7051,4.7011,4.7036,4.7002,4.7023,4.7004,4.7047,4.7051,4.7044,4.7038,4.7047,4.7048,4.7053,4.7046,4.7024,4.7023,4.7023,4.7022,0,4.7059,4.7037,4.7083,4.7072,4.707,4.7106,4.7095,4.7121,4.7106,4.7139,4.7145,4.7123,4.7146,4.7122,4.7143,4.713,4.7188,4.7173,4.7188,4.7184,4.7231,4.7227,4.7391,4.741,4.7256,4.7257,4.7259,0,4.7134,4.7167,4.7159,4.7173,4.7173,4.7196,4.7207,4.7177,4.719,4.7193,4.7218,4.7237,4.7251,4.729,4.7275,4.7291,4.7276,4.7332,4.7278,4.7286,4.7276,4.7275,4.7277,4.7343,4.7345,4.7347,4.7348,0,4.727,4.7257,4.7275,4.7289,4.7303,4.7312,4.7319,4.7332,4.7301,4.7317,4.734,4.7351,4.7372,4.7392,4.7404,4.7401,4.737,4.7365,4.7377,4.7386,4.7393,4.7389,4.7218,4.7361,4.736,4.7359,4.7358,4.7358,4.7372,4.7399,4.7397,4.7417,4.7419,4.7425,4.7448,4.7437,4.7455,4.747,4.7451,4.7479,4.7478,4.7491,4.7492,4.7513,4.7489,4.7506,4.751,4.7515,4.7521,4.739,4.7515,4.7515,4.7514,4.7514,4.7514,0,4.7506,4.7502,4.7521,4.7531,4.7547,4.7515,4.7521,4.7536,4.7561,4.7563,4.7577,4.7603,4.7622,4.7609,4.7625,4.7645,4.763,4.765,4.7648,4.7648,4.7542,4.753,4.7661,4.7661,4.7661,4.7661,4.7661,4.7661,4.7577,4.762,4.7607,4.765,4.7646,4.7673,4.7679,4.7684,4.7686,4.7716,4.7732,4.7723,4.7719,4.7734,4.775,4.7745,4.7753,4.7777,4.7768,4.767,4.7655,4.7641,4.763,4.7779,4.7779,4.7871,4.7872,4.7873]}]]